User: anonymous   Login
Location: Nairn
(57.5833°N, 3.8667°W)
Time: 12:56:53
(UTC+00:00)
Language:

Cosmos 2084 Rocket - Orbit

View from above orbital plane
View from above orbital plane
View from above satellite
View from above satellite

Ground track
Ground track

The orbit data is extracted from the following two-line orbital elements,

1 20666U 90055D   20294.47242259 -.00000017 +00000-0 +16652-4 0  9994
2 20666 062.7875 026.8838 0063618 004.5303 355.6353 14.92372675643426
Epoch (UTC): 20 October 2020 11:20:17
Eccentricity: 0.0063618
inclination: 62.7875°
perigee height: 546 km
apogee height: 635 km
right ascension of ascending node: 26.8838°
argument of perigee: 4.5303°
revolutions per day: 14.92372675
mean anomaly at epoch: 355.6353°
orbit number at epoch: 64342

The dashed part of the orbit path shows where the satellite is in the earth's shadow,  

DLR